Simultaneous Nadir Overpasses (SNOs) Predictions

Prediction of SNOs between METOP-A and TERRA Satellite Orbit:

Table of predicted SNOs for the next 14.0 days since TLE Epoch: 11/25/2011
Index Date Time (METOP-A) METOP-A Lat,Lon TERRA Lat,Lon Distance(km) Time Diff (sec)
1 11/28/2011 09:51:30 81.22, 78.54 81.22, 78.72 3.11 17
2 11/28/2011 10:42:09 -81.23,-113.44 -81.23,-113.34 1.79 56
3 12/01/2011 05:25:51 81.22, 145.21 81.22, 145.26 0.96 16
4 12/01/2011 06:16:31 -81.23, -47.17 -81.22, -47.16 0.61 57
5 12/04/2011 01:00:13 81.22,-148.19 81.22,-148.37 3.09 15
6 12/04/2011 01:50:54 -81.22, 19.03 -81.22, 19.22 3.27 59
7 12/06/2011 20:34:35 81.23, -81.66 81.23, -81.80 2.49 13
8 12/06/2011 21:25:15 -81.23, 85.95 -81.23, 85.81 2.37 60
9 12/09/2011 16:08:58 81.22, -15.58 81.23, -15.41 3.09 10




NCC Satellite Simultaneous Nadir Overpasses (SNOs) Prediction Service
